User: anonymous   Login
Location: Unspecified
(0.0000°N, 0.0000°E)
Time: 03:31:08
(UTC+00:00)
Language:

COSMOS 2501 (GLONASS) - Orbit

View from above orbital plane
View from above orbital plane
View from above satellite
View from above satellite

Ground track
Ground track

The orbit data is extracted from the following two-line orbital elements,

1 40315U 14075A   17349.41906807 -.00000065 +00000-0 +00000-0 0  9991
2 40315 064.3182 298.9833 0016022 213.5555 259.4990 02.13098469023676
Epoch (UTC): 15 December 2017 10:03:27
Eccentricity: 0.0016022
inclination: 64.3182°
perigee height: 19089 km
apogee height: 19171 km
right ascension of ascending node: 298.9833°
argument of perigee: 213.5555°
revolutions per day: 2.13098469
mean anomaly at epoch: 259.4990°
orbit number at epoch: 2367

The dashed part of the orbit path shows where the satellite is in the earth's shadow,  

DLR